sat.trackr.live / text

‹ back to catalog

STARLINK-31434

NORAD 59215 · 2024-046Q

PAYLOAD ACTIVE UNKNOWN

§ Identity

Operator
Country
US
Launch date
2024-03-11
Launch site
AFWTR
Launch vehicle
Mass (kg)
RCS (m²)

Purposes: comms

External: N2YO · Heavens-Above · Gunter

§ Orbital elements

Epoch: 2026-05-24T10:28:53.944608Z

Period
93.85 min
Inclination
53.1601°
Eccentricity
0.0001248
Mean motion
15.34384696 rev/d
Perigee alt
461.9 km
Apogee alt
463.6 km
Semi-major
6,840.9 km
B*
3.8163e-5
RAAN
162.3064°
Arg perigee
93.0279°
Mean anomaly
267.0866°
Rev number
12,465

§ Raw data

STARLINK-314341 59215U 24046Q   26144.43673547  .00000913  00000+0  38163-4 0  99912 59215  53.1601 162.3064 0001248  93.0279 267.0866 15.34384696124659

JSON: /api/v1/satellites/59215 · /tle

For live sub-satellite position, see the globe view (requires WebGL).

§ Visibility from observer

Set your observer location to see the next 7 days of passes ≥ 10°. The values pass through the URL so the page stays shareable.

No JS? Fill the form by hand. The geolocation button needs JavaScript.